EW7304 Weather Reports


Display with metric or nautical units.
time (UTC)temp
F
wind
direction
speed
MPH
gust
MPH
rain 1hr
in
rain 24hr
in
rain mn
in
humidity
%
barometer
mb
20260507020041 79 223 0.0 1.0 0.00 0.00 0.00 91 1010.1
20260507014520 79 252 0.0 3.0 0.00 0.00 0.00 91 1009.7
20260507013024 80 209 0.0 1.0 0.00 0.00 0.00 90 1009.6
20260507011533 80 213 0.0 2.0 0.00 0.00 0.00 90 1009.3
20260507010019 80 131 0.0 0.0 0.00 0.00 0.00 89 1009.2
20260507004518 80 224 0.0 1.0 0.00 0.00 0.00 89 1009.2
20260507003017 81 217 0.0 1.0 0.00 0.00 0.00 88 1009.0
20260507001544 81 212 0.0 1.0 0.00 0.00 0.00 87 1008.8
20260507000017 81 158 0.0 1.0 0.00 0.00 0.00 87 1008.9
20260506234517 82 231 0.0 2.0 0.00 0.00 0.00 86 1008.9
20260506233018 82 216 0.0 1.0 0.00 0.00 0.00 85 1008.7
20260506231517 82 205 0.0 2.0 0.00 0.00 0.00 85 1008.7
20260506230014 82 221 0.0 6.0 0.00 0.00 0.00 85 1008.5
20260506224516 82 224 0.0 1.0 0.00 0.00 0.00 85 1008.3
20260506223012 83 231 0.0 1.0 0.00 0.00 0.00 85 1008.4
20260506221512 83 212 0.0 3.0 0.00 0.00 0.00 84 1008.5
20260506220012 84 238 0.0 2.0 0.00 0.00 0.00 83 1008.5
20260506214510 84 168 0.0 3.0 0.00 0.00 0.00 82 1008.5
20260506213010 85 172 0.0 2.0 0.00 0.00 0.00 82 1008.6
20260506211509 85 184 0.0 3.0 0.00 0.00 0.00 81 1008.6
20260506210008 84 65 0.0 3.0 0.00 0.00 0.00 82 1008.6
20260506204506 85 219 1.0 9.0 0.00 0.00 0.00 82 1008.6
20260506203009 84 267 0.0 3.0 0.00 0.00 0.00 83 1008.8
20260506201505 83 150 0.0 5.0 0.00 0.00 0.00 85 1009.1
20260506200004 83 134 0.0 1.0 0.00 0.00 0.00 85 1009.3
20260506194518 84 214 0.0 2.0 0.00 0.00 0.00 84 1009.4
20260506193002 84 210 0.0 4.0 0.00 0.00 0.00 83 1009.5
20260506191601 84 236 0.0 2.0 0.00 0.00 0.00 83 1009.6
20260506190100 84 202 0.0 3.0 0.00 0.00 0.00 84 1009.8
20260506184558 84 210 0.0 3.0 0.00 0.00 0.00 84 1010.0
20260506184521 84 135 0.0 3.0 0.00 0.00 0.00 84 1010.0
20260506183107 84 261 0.0 3.0 0.00 0.00 0.00 83 1010.0
20260506181557 83 163 0.0 4.0 0.00 0.00 0.00 84 1010.4
20260506180054 83 218 0.0 0.0 0.00 0.00 0.00 85 1010.5
20260506174552 83 154 0.0 1.0 0.00 0.00 0.00 85 1010.5
20260506173058 83 218 0.0 2.0 0.00 0.00 0.00 86 1010.7
20260506171550 82 213 0.0 2.0 0.00 0.00 0.00 87 1010.9
20260506170052 81 56 0.0 3.0 0.00 0.00 0.00 90 1011.0
20260506164554 80 195 0.0 2.0 0.00 0.00 0.00 91 1010.9
20260506163041 80 212 0.0 1.0 0.00 0.00 0.00 91 1010.8
20260506161534 79 218 0.0 1.0 0.00 0.00 0.00 91 1010.8
20260506160035 79 11 0.0 2.0 0.00 0.00 0.00 92 1010.8
20260506154530 79 169 0.0 1.0 0.00 0.00 0.00 92 1010.6
20260506153027 79 90 0.0 0.0 0.00 0.00 0.00 92 1010.3
20260506151527 79 48 0.0 1.0 0.00 0.00 0.00 92 1010.2
20260506150027 79 238 0.0 1.0 0.00 0.00 0.00 92 1009.9
20260506144529 78 137 0.0 2.0 0.00 0.00 0.00 93 1009.7
20260506143025 79 131 0.0 1.0 0.00 0.00 0.00 92 1009.7
20260506141530 79 209 0.0 0.0 0.00 0.00 0.00 92 1009.9
20260506140022 79 135 0.0 3.0 0.00 0.00 0.00 92 1009.9
20260506134520 78 159 0.0 0.0 0.00 0.00 0.00 94 1009.9
20260506133017 77 71 0.0 1.0 0.00 0.00 0.00 95 1010.1
20260506131547 77 27 0.0 0.0 0.00 0.00 0.00 95 1010.1
20260506130017 77 219 0.0 1.0 0.00 0.00 0.00 95 1010.1
20260506124513 76 139 0.0 0.0 0.00 0.00 0.00 95 1009.9
20260506123014 76 139 0.0 0.0 0.00 0.00 0.00 96 1009.8
20260506121514 76 137 0.0 0.0 0.00 0.00 0.00 96 1009.7
20260506120020 76 137 0.0 0.0 0.00 0.00 0.00 96 1009.5
20260506114510 76 135 0.0 0.0 0.00 0.00 0.00 96 1009.2
20260506113010 76 167 0.0 2.0 0.00 0.00 0.00 96 1008.9
20260506111509 76 147 0.0 0.0 0.00 0.00 0.00 96 1008.8
20260506110009 76 216 0.0 1.0 0.00 0.00 0.00 96 1008.8
20260506104513 75 235 0.0 1.0 0.00 0.00 0.00 96 1008.9
20260506103025 75 326 0.0 0.0 0.00 0.00 0.00 96 1008.9
20260506101508 75 326 0.0 1.0 0.00 0.00 0.00 96 1008.9
20260506100006 75 32 0.0 0.0 0.00 0.00 0.00 95 1008.7
20260506094505 76 32 0.0 0.0 0.00 0.00 0.00 95 1008.6
20260506093003 76 32 0.0 1.0 0.00 0.00 0.00 95 1008.7
20260506091502 76 99 0.0 1.0 0.00 0.00 0.00 95 1008.7
20260506090001 76 206 0.0 0.0 0.00 0.00 0.00 95 1008.7
20260506084635 76 206 0.0 0.0 0.00 0.00 0.00 94 1009.0
20260506083059 76 207 0.0 3.0 0.00 0.00 0.00 94 1009.1
20260506081601 76 205 0.0 2.0 0.00 0.00 0.00 94 1009.1
20260506073051 76 212 0.0 2.0 0.00 0.00 0.00 93 1009.6
20260506071549 77 222 0.0 3.0 0.00 0.00 0.00 93 1009.7
20260506061544 77 227 0.0 2.0 0.00 0.00 0.00 92 1009.7
20260506044539 77 217 0.0 2.0 0.00 0.00 0.00 91 1009.8
20260506043044 77 223 0.0 3.0 0.00 0.00 0.00 91 1009.7
20260506041639 77 330 0.0 5.0 0.00 0.00 0.00 91 1009.7
20260506040038 77 170 0.0 2.0 0.00 0.00 0.00 91 1009.4
20260506034536 77 70 0.0 1.0 0.00 0.00 0.00 91 1009.5
20260506033035 77 200 0.0 2.0 0.00 0.00 0.00 91 1009.4
20260506031540 77 207 0.0 2.0 0.00 0.00 0.00 92 1009.2
20260506030035 77 152 0.0 2.0 0.00 0.00 0.00 92 1009.2
20260506024537 77 207 0.0 4.0 0.00 0.00 0.00 92 1009.1
20260506023051 77 160 0.0 1.0 0.00 0.00 0.00 92 1008.8
20260506021559 77 148 0.0 1.0 0.00 0.00 0.00 91 1008.7